Tracking 30703 objects as of 13-Jun-2025
HD Live streaming from Space Station
objects crossing your sky now

DMSP 5D-2 F12 DEB

Track DMSP 5D-2 F12 DEB now!
10-day predictions


NORAD ID: 23250
Int'l Code: 1994-057D
Perigee: 629.1 km
Apogee: 630.3 km
Inclination: 98.1 °
Period: 97.2 minutes
Semi major axis: 7000 km
RCS: 0.0787 m2 (small)
Launch date: August 29, 1994
Source: United States (US)
Launch site: AIR FORCE WESTERN TEST RANGE (AFWTR)

Note: This is SATELLITE DEBRIS
Your satellite tracking list
Your tracking list is empty




NASA's NSSDC Master Catalog

Two Line Element Set (TLE):
1 23250U 94057D   25163.88975785  .00014621  00000-0  18396-2 0  9994
2 23250  98.0806 195.5596 0000853 314.7619 172.0121 14.82153854612871
Source of the keplerian elements: AFSPC